Home > Weather > Bastia > Past weeks

Flag for France Weather for the Past 2 Weeks in Bastia, Corsica, France

Now
55 °F

Mostly cloudy.


Feels Like: 52 °F
Forecast: 50 / 58 °F
Wind: 15 mph from Southeast

Location: Bastia Airport

Current Time: Feb 6, 2016 at 10:30:16 PM

Latest Report: Feb 6, 2016 at 9:30 PM


Visibility: N/A

Pressure: 30.21 "Hg

Humidity: 82%

Dew point: 50 °F

Location of BastiaLocation

Historic Weather in Bastia — Graph

°F

Bastia Temperature Yesterday

Maximum temperature yesterday: 59 °F (at 11:30 AM)
Minimum temperature yesterday: 39 °F (at 12:30 AM)
Average temperature yesterday: 47 °F

High & Low Weather Summary for the Past Weeks

 TemperatureHumidityPressure
High63 °F (Jan 31, 12:00 PM)100% (Jan 22, 11:00 PM)30.60 "Hg (Jan 22, 11:00 PM)
Low39 °F (Feb 5, 12:30 AM)17% (Feb 4, 2:30 PM)29.92 "Hg (Feb 3, 4:00 PM)
Average52 °F78%30.35 "Hg
* Reported Jan 22 9:00 PM — Feb 6 9:00 PM, Bastia, Weather by CustomWeather, © 2016

Note: Actual official high and low records may vary slightly from our data, if they occured in-between our weather recording intervals... More about our weather records

Advertising

Bastia Weather History for the Previous 24 Hours

 ConditionsComfort  
Time TempWeatherWind HumidityBarometerVisibility
9:00 PM
Sat, Feb 6
55 °FOvercast.15 mph77%30.21 "HgN/A
8:30 PM55 °FMostly cloudy.14 mph77%30.24 "HgN/A
8:00 PM55 °FLight rain. Mostly cloudy.15 mph77%30.24 "HgN/A
7:30 PM55 °FMostly cloudy.13 mph77%30.24 "HgN/A
7:00 PM55 °FMostly cloudy.13 mph77%30.24 "HgN/A
6:30 PM55 °FMostly cloudy.14 mph77%30.27 "HgN/A
6:00 PM55 °FMostly cloudy.14 mph77%30.27 "HgN/A
5:30 PM55 °FMostly cloudy.14 mph77%30.27 "HgN/A
5:00 PM55 °FOvercast.15 mph77%30.27 "HgN/A
4:30 PM55 °FOvercast.15 mph77%30.27 "HgN/A
4:00 PM57 °FPartly sunny.17 mph72%30.27 "HgN/A
3:30 PM57 °FPartly sunny.20 mph72%30.27 "HgN/A
3:00 PM57 °FPartly sunny.20 mph67%30.27 "HgN/A
2:30 PM59 °FPartly sunny.17 mph68%30.30 "HgN/A
2:00 PM59 °FPartly sunny.18 mph68%30.30 "HgN/A
1:30 PM59 °FPartly sunny.16 mph68%30.30 "HgN/A
1:00 PM59 °FPartly sunny.16 mph72%30.33 "HgN/A
12:30 PM59 °FPartly sunny.16 mph68%30.33 "HgN/A
12:00 PM59 °FPartly sunny.15 mph68%30.36 "HgN/A
11:30 AM59 °FPartly sunny.12 mph68%30.36 "HgN/A
11:00 AM57 °FPartly sunny.5 mph67%30.39 "HgN/A
10:30 AM55 °FPartly sunny.No wind77%30.39 "HgN/A
10:00 AM54 °FPartly sunny.1 mph72%30.39 "HgN/A
9:30 AM50 °FPartly sunny.1 mph76%30.39 "HgN/A
9:00 AM46 °FBroken clouds.5 mph82%30.39 "HgN/A
8:30 AM43 °FBroken clouds.5 mph87%30.39 "HgN/A
8:00 AM43 °FPartly sunny.5 mph87%30.39 "HgN/A
7:30 AM45 °FPartly cloudy.5 mph81%30.39 "HgN/A
7:00 AM45 °FPassing clouds.5 mph87%30.39 "HgN/A
6:30 AM45 °FPassing clouds.5 mph87%30.39 "HgN/A
6:00 AM45 °FPassing clouds.6 mph81%30.36 "HgN/A
5:00 AM45 °FPassing clouds.5 mph87%30.39 "HgN/A
4:30 AM45 °FPassing clouds.5 mph87%30.39 "HgN/A
4:00 AM45 °FPassing clouds.3 mph87%30.39 "HgN/A
3:00 AM43 °FPassing clouds.6 mph87%30.39 "HgN/A
2:30 AM43 °FClear.5 mph87%30.39 "Hg10 mi
1:30 AM43 °FClear.3 mph87%30.39 "Hg10 mi
1:00 AM43 °FClear.5 mph87%30.39 "Hg10 mi
12:30 AM43 °FClear.3 mph93%30.39 "Hg10 mi
12:05 AM43 °FClear.5 mph93%30.39 "Hg10 mi
11:30 PM
Fri, Feb 5
45 °FClear.5 mph93%30.36 "Hg10 mi
11:00 PM43 °FClear.5 mph93%30.36 "Hg10 mi
10:30 PM43 °FClear.5 mph93%30.36 "Hg10 mi
10:00 PM43 °FClear.5 mph93%30.36 "Hg10 mi
Weather by CustomWeather, © 2016

See weather overviewHow to use our weather pages